Location: Shepherdstown, WV
(39.4326°N, 77.8042°W)
Time: 08:44:02
(UTC-04:00)

Transit 2A - Pass Details

Date: 08 August 2021
Orbit: 595 x 964 km, 66.7° (Epoch: 18 September)

Event Time Altitude Azimuth Distance (km) Brightness Sun altitude
Exits shadow 05:39:19 - 215° (SW) 2,233 7.9 -7.5°
Reaches altitude 10° 05:40:03 10° 216° (SW) 1,940 7.6 -7.4°
Maximum altitude 05:44:22 71° 300° (WNW) 663 5.6 -6.7°
Drops below altitude 10° 05:49:01 10° 25° (NNE) 2,084 9.1 -5.9°
Sets 05:51:27 0° 27° (NNE) 3,054 10.1 -5.5°
